Location: Menands
(42.6920°N, 73.7246°W)
Time: 01:13:07
(UTC+00:00)

SL-8 R/B - Pass Details

Date: 18 February 2026
Orbit: 646 x 656 km, 48.4° (Epoch: 12 March)

Event Time Altitude Azimuth Distance (km) Brightness Sun altitude
Rises 23:16:12 0° 216° (SW) 2,965 7.8 -9.0°
Reaches altitude 10° 23:18:39 10° 208° (SSW) 2,057 6.7 -9.5°
Maximum altitude 23:23:01 37° 141° (SE) 1,013 4.4 -10.3°
Enters shadow 23:26:31 15° 80° (E) 1,757 5.2 -10.9°
